User: anonymous   Login
Location: Key Biscayne
(25.6930°N, 80.1630°W)
Time: 08:08:22
(UTC-04:00)
Language:

CZ-2D R/B - Orbit

View from above orbital plane
View from above orbital plane
View from above satellite
View from above satellite

Ground track
Ground track

The orbit data is extracted from the following two-line orbital elements,

1 28738U 05024B   17085.69128476 +.00000656 +00000-0 +43017-4 0  9999
2 28738 097.5071 124.1489 0010737 291.3462 068.6622 15.11032889643330
Epoch (UTC): 26 March 2017 16:35:27
Eccentricity: 0.0010737
inclination: 97.5071°
perigee height: 525 km
apogee height: 540 km
right ascension of ascending node: 124.1489°
argument of perigee: 291.3462°
revolutions per day: 15.11032889
mean anomaly at epoch: 68.6622°
orbit number at epoch: 64333

The dashed part of the orbit path shows where the satellite is in the earth's shadow,  

DLR